Regional Weather Roundup
Issued by NWS Newport/Morehead, NC

Current Version | Previous Version | Text Only | Print | Product List | Glossary On
Versions: 1 2 3 4 5 6 7 8 9 10 11 12 13 14 15 16 17 18 19 20 21 22 23 24 25 26 27 28 29 30 31 32 33 34 35 36 37 38 39 40 41 42 43 44 45 46 47 48 49 50
000 ASUS42 KMHX 291613 RWRMHX WEATHER ROUNDUP FOR EASTERN NORTH CAROLINA NATIONAL WEATHER SERVICE NEWPORT/MOREHEAD CITY NC 1200 PM EDT MON JUN 29 2015 NOTE: "FAIR" INDICATES FEW OR NO CLOUDS BELOW 12,000 FEET WITH NO SIGNIFICANT WEATHER AND/OR OBSTRUCTIONS TO VISIBILITY NCZ015>017-031-032-045>047-102-103-291700- NORTH COAST CITY SKY/WX TMP DP RH WIND PRES REMARKS EDENTON N/A 82 67 59 E8 30.00S ELIZABETH CITY SUNNY 81 62 52 SE10 30.00S KITTY HAWK SUNNY 84 62 46 E9 29.99S MANTEO SUNNY 80 64 57 E12 30.00S $$ NCZ045>047-081-094-103-104-291700- CENTRAL COAST CITY SKY/WX TMP DP RH WIND PRES REMARKS FRISCO PTSUNNY 80 67 64 SE10 30.00R SWANQUARTER N/A 84 N/A N/A S9G18 29.94S $$ NCZ095-097-098-100-101-291700- SOUTHERN COAST CITY SKY/WX TMP DP RH WIND PRES REMARKS BEAUFORT MOSUNNY 82 69 64 SE7 29.99S CEDAR ISLAND N/A 82 N/A N/A E14 30.03S JACKSONVILLE MOSUNNY 83 69 62 SE12 29.98S PINEY ISLAND MOSUNNY N/A N/A N/A SE12 29.99R WILMINGTON SUNNY 83 68 60 E10 29.98S $$ NCZ011>013-027>030-043-044-078>080-089-090>093-098-291700- COASTAL PLAIN CITY SKY/WX TMP DP RH WIND PRES REMARKS AHOSKIE SUNNY 79 59 50 SE6 30.00F CLINTON SUNNY 83 63 50 E7 29.98F ELIZABETHTOWN SUNNY 84 66 55 E5 29.98S GOLDSBORO MOSUNNY 85 59 41 E8 29.96F GREENVILLE SUNNY 84 61 45 SE6 30.00F HAVELOCK PTSUNNY 84 68 58 SE12 30.00R KENANSVILLE SUNNY 83 62 49 SE3 29.99S KINSTON SUNNY 84 63 48 SE9 29.99F NEW BERN PTSUNNY 84 68 58 VRB7 29.99F RICHLANDS PTSUNNY 84 66 54 SE12 29.98F ROCKY MOUNT PTSUNNY 85 63 47 E8 29.99F WASHINGTON SUNNY 83 60 46 SE6 30.00R WHITEVILLE SUNNY 83 68 60 S5 29.97F $$ AMZ130-135-150-152-154-156-158-170-250-252-270-ANZ085-086-088-633-658-670-291700- MARINE OBSERVATIONS STATION/POSITION TIME TEMP WIND PRES WAVE SWELL AIR SEA DIR/SP/G HT/PER HT/PER (UTC) (F) (DEG/KT/KT) (MB) (FT/S) (FT/S) CHESAPEAKE LIGHT 1600 74 20/ 3/ 4 1016.8 64 E VA BEACH 1550 76 76 120/ 2/ 4 1015.9 4/ 7 5/ 7 DUCK 1500 77 70 70/ 8/ 9 1015.3 2 E DUCK 1511 75 N/A 2/ 8 OREGON INLET 1500 77 74 50/ 7/ 10 1015.7 13E OREGON INLT 1600 75 N/A 4/ 7 HATTERAS CG 1500 79 80 130/ 8/ 12 1015.3 DIAMOND BUOY 1550 78 81 120/ 10/ 12 1015.7 4/ 7 3/ 7 CAPE LOOKOUT 1600 78 130/ 10/ 11 1015.3 BEAUFORT LAB 1500 78 81 130/ 8/ 11 1014.8 30 SE NEW RVR IN 1508 79 80 130/ 12/ 16 1015.6 27 SE WRIGHTSVLE 1500 140/ 10/ 12 N/A 5 SE WRIGHTSVLE 1508 77 79 140/ 8/ 12 1015.3 225 S CAPE HAT 1550 79 80 260/ 16/ 19 1018.4 7/ 7 41 SE CHARLESTON 1550 80 83 270/ 12/ 14 1015.5 4/ 7 3/ 7 $$

USA.gov is the U.S. government's official web portal to all federal, state and local government web resources and services.